TimeCDT,TemperatureF,Dew PointF,Humidity,Sea Level PressureIn,VisibilityMPH,Wind Direction,Wind SpeedMPH,Gust SpeedMPH,PrecipitationIn,Events,Conditions,WindDirDegrees,DateUTC
12:53 AM,57.0,45.0,64,30.12,10.0,SSE,5.8,-,N/A,,Clear,160,2012-09-16 05:53:00
1:53 AM,55.0,46.0,72,30.10,10.0,South,8.1,-,N/A,,Clear,170,2012-09-16 06:53:00
2:53 AM,54.0,46.0,75,30.09,10.0,South,6.9,-,N/A,,Clear,180,2012-09-16 07:53:00
3:53 AM,54.0,46.0,75,30.09,10.0,South,4.6,-,0.01,,Clear,180,2012-09-16 08:53:00
4:53 AM,53.1,46.0,77,30.08,10.0,South,8.1,-,N/A,,Clear,180,2012-09-16 09:53:00
5:53 AM,51.1,46.9,86,30.09,10.0,South,4.6,-,N/A,,Clear,190,2012-09-16 10:53:00
6:08 AM,50.0,46.4,87,30.09,10.0,SSW,5.8,-,N/A,,Partly Cloudy,210,2012-09-16 11:08:00
7:35 AM,53.6,48.2,82,30.09,10.0,South,4.6,-,N/A,,Scattered Clouds,180,2012-09-16 12:35:00
7:53 AM,53.1,48.9,86,30.09,10.0,South,4.6,-,N/A,,Partly Cloudy,170,2012-09-16 12:53:00
8:53 AM,55.0,52.0,89,30.09,10.0,South,6.9,-,N/A,,Clear,180,2012-09-16 13:53:00
9:11 AM,55.4,53.6,94,30.09,2.5,South,6.9,-,N/A,,Scattered Clouds,190,2012-09-16 14:11:00
9:15 AM,55.4,53.6,94,30.09,1.0,South,6.9,-,N/A,,Mist,190,2012-09-16 14:15:00
9:22 AM,55.4,53.6,94,30.09,0.5,South,6.9,-,N/A,Fog,Fog,190,2012-09-16 14:22:00
9:41 AM,55.4,55.4,100,30.09,2.0,South,5.8,-,N/A,,Overcast,180,2012-09-16 14:41:00
9:49 AM,57.2,55.4,94,30.09,4.0,SSW,5.8,-,N/A,,Overcast,210,2012-09-16 14:49:00
9:53 AM,57.0,55.0,93,30.10,4.0,SSW,5.8,-,N/A,,Overcast,210,2012-09-16 14:53:00
10:53 AM,60.1,57.0,90,30.09,7.0,SW,4.6,-,N/A,,Overcast,230,2012-09-16 15:53:00
11:03 AM,60.8,57.2,88,30.09,8.0,SSW,5.8,-,N/A,,Overcast,210,2012-09-16 16:03:00
11:53 AM,63.0,59.0,87,30.09,10.0,SSW,4.6,-,N/A,,Overcast,200,2012-09-16 16:53:00
12:23 PM,64.4,60.8,88,30.07,10.0,SSW,4.6,-,N/A,,Partly Cloudy,200,2012-09-16 17:23:00
12:53 PM,66.9,60.1,79,30.06,10.0,SSW,6.9,-,N/A,,Mostly Cloudy,210,2012-09-16 17:53:00
1:38 PM,68.0,59.0,73,30.06,10.0,SSW,5.8,-,N/A,,Mostly Cloudy,200,2012-09-16 18:38:00
1:53 PM,68.0,60.1,76,30.05,10.0,SW,5.8,-,N/A,,Mostly Cloudy,220,2012-09-16 18:53:00
2:06 PM,68.0,60.8,78,30.05,10.0,South,4.6,-,N/A,,Scattered Clouds,190,2012-09-16 19:06:00
2:18 PM,69.8,60.8,73,30.04,10.0,SSW,9.2,-,N/A,,Mostly Cloudy,210,2012-09-16 19:18:00
2:40 PM,69.8,60.8,73,30.03,10.0,SW,5.8,-,N/A,,Scattered Clouds,220,2012-09-16 19:40:00
3:23 PM,69.8,60.8,73,30.02,10.0,SSW,11.5,-,N/A,,Mostly Cloudy,210,2012-09-16 20:23:00
3:31 PM,69.8,60.8,73,30.01,10.0,SSW,8.1,-,N/A,,Scattered Clouds,200,2012-09-16 20:31:00
3:53 PM,70.0,60.1,71,30.01,10.0,SSW,11.5,-,N/A,,Partly Cloudy,200,2012-09-16 20:53:00
4:53 PM,66.9,59.0,76,30.00,10.0,South,9.2,-,N/A,,Clear,190,2012-09-16 21:53:00
5:53 PM,66.0,59.0,78,29.99,10.0,SSW,10.4,-,0.01,,Clear,200,2012-09-16 22:53:00
6:53 PM,64.0,57.9,80,29.98,9.0,South,6.9,-,0.01,,Clear,190,2012-09-16 23:53:00
7:53 PM,62.1,57.9,86,29.97,10.0,South,4.6,-,0.01,,Clear,180,2012-09-17 00:53:00
8:53 PM,62.1,57.9,86,29.97,10.0,South,4.6,-,0.01,,Clear,180,2012-09-17 01:53:00
9:53 PM,61.0,57.0,87,29.97,10.0,South,5.8,-,N/A,,Clear,170,2012-09-17 02:53:00
10:53 PM,60.1,57.0,90,29.97,9.0,South,4.6,-,N/A,,Clear,180,2012-09-17 03:53:00
11:53 PM,55.9,54.0,93,29.97,3.0,North,3.5,-,N/A,,Clear,360,2012-09-17 04:53:00